Theta_e
303 304 304 304 304 305 305 305 306 305 303 307 307 312 308 303 300 309 312 316 311 303 297 299 295 295 296 299 297 298 296 296 298 296 298 297 298 296 297 296 295 296 295 295 295 297 295 297 295 297 296 297 301 302 301 302 301 301 299 301 302 303 294 294 294 296 299 300 301 302 302 301 298 299 300 299 297 298 296 294 295 291 292 290 291 287 292
303 304 304 304 304 305 305 305 306 305 304 305 307 307 304 303 302 305 311 315 311 301 290 290 291 295 296 296 296 298 297 296 294 294 296 296 296 294 294 296 297 294 298 296 294 297 290 296 297 296 297 299 304 303 302 303 301 300 300 297 303 293 297 295 290 290 292 295 298 297 301 300 297 296 299 299 299 300 301 299 299 290 293 292 289 284 290
303 304 304 304 304 305 305 305 305 305 304 306 307 306 304 303 306 306 307 311 308 297 299 296 293 295 295 296 294 295 295 296 297 297 296 298 297 296 295 297 298 296 297 296 297 297 295 295 299 298 300 297 303 303 303 302 300 302 303 305 303 295 295 293 287 285 282 282 284 286 290 294 297 298 297 298 298 298 298 291 294 288 293 294 290 287 295
303 303 304 304 304 305 305 305 305 304 304 304 309 308 304 298 290 298 302 305 305 302 303 301 297 295 296 291 295 296 294 297 297 297 297 298 298 298 297 298 299 296 295 294 294 294 297 294 295 298 298 299 300 302 303 303 302 305 310 304 303 297 298 296 293 290 287 289 292 296 296 296 292 295 296 297 298 299 299 298 291 289 293 291 294 295 294
303 303 303 304 304 304 305 305 304 304 304 304 307 309 303 302 294 293 291 301 300 300 300 299 299 295 298 290 296 294 294 296 295 298 294 298 297 297 296 296 294 294 294 294 294 294 294 297 295 296 297 300 300 302 304 304 306 308 303 305 300 298 291 294 294 292 293 295 294 296 295 294 295 295 296 297 297 299 298 291 290 299 291 287 299 298 295
303 303 303 303 304 304 305 305 304 304 303 303 310 303 301 294 296 300 301 294 290 292 294 298 296 296 298 295 297 294 294 294 292 295 297 298 299 295 295 295 296 295 295 296 291 294 294 295 291 296 297 297 300 298 302 302 307 305 303 305 301 297 290 296 295 294 295 296 296 296 295 294 295 295 296 296 298 299 295 296 299 299 291 287 296 299 296
303 303 303 303 304 304 304 305 304 303 303 305 311 301 302 301 300 299 304 295 297 298 297 298 295 293 296 294 296 294 294 292 294 294 296 296 297 297 289 293 294 295 297 296 294 296 290 290 298 298 298 297 298 296 298 301 304 303 303 302 303 299 292 298 296 294 293 293 293 295 294 295 295 295 295 297 298 299 300 299 301 301 299 300 299 298 295
302 302 303 303 304 304 305 305 305 303 302 310 304 301 299 296 297 295 302 300 297 298 298 296 294 293 294 290 293 294 293 293 294 295 295 290 294 298 296 294 295 296 296 297 296 296 297 297 292 299 299 299 298 298 299 298 301 303 301 301 303 298 292 297 296 293 292 294 294 294 294 294 294 294 296 297 297 298 299 300 300 301 301 300 298 294 292
302 302 303 303 303 304 305 305 304 303 303 308 302 301 303 302 304 303 298 292 294 296 296 295 294 291 292 290 291 294 292 292 295 293 296 294 292 294 294 296 298 297 296 295 294 296 297 297 297 298 298 294 298 297 298 299 298 300 300 301 304 301 293 297 295 289 289 293 293 293 294 293 293 293 294 295 296 293 296 295 301 298 295 297 295 291 290
301 302 302 303 303 304 304 305 305 303 304 307 303 299 305 307 305 305 300 291 293 293 296 296 293 287 291 290 289 290 290 290 295 290 295 297 296 296 296 297 298 295 294 293 294 296 297 298 298 298 299 300 300 300 299 299 300 300 301 303 297 298 296 292 291 288 288 293 293 292 292 292 288 288 293 295 295 296 297 298 299 299 301 294 291 293 297
301 302 302 303 303 304 304 305 305 304 307 306 305 300 301 300 300 302 300 292 291 294 294 292 291 290 293 291 291 292 290 291 292 289 288 296 296 298 297 296 295 292 292 294 298 300 300 300 300 300 299 300 299 299 299 299 300 299 300 300 299 299 298 293 297 287 288 292 293 293 289 282 284 294 299 297 294 295 294 292 295 298 300 296 299 297 298
301 301 302 302 303 303 304 304 305 305 304 309 309 303 304 306 305 303 296 290 289 295 292 288 290 291 292 293 292 289 289 289 290 294 290 293 296 297 296 296 295 288 295 300 300 301 301 301 300 300 299 299 299 299 299 298 298 300 300 299 298 297 296 293 296 288 287 291 292 287 281 284 293 297 297 299 299 297 293 293 295 297 298 298 297 297 298
301 301 301 302 303 303 304 304 305 305 305 308 309 301 306 309 305 300 296 293 289 292 290 291 293 292 292 292 294 293 293 292 293 294 294 293 292 294 296 295 293 293 299 298 300 300 296 296 296 296 296 297 297 298 297 297 297 299 300 299 299 293 294 294 292 292 291 289 288 280 282 292 296 297 298 300 300 298 297 294 295 297 297 297 295 296 297
301 301 301 302 302 303 304 304 304 305 305 306 308 304 304 305 302 301 296 292 289 293 295 293 293 293 293 292 292 294 295 295 295 295 292 293 293 292 294 295 297 299 300 300 299 299 295 296 290 292 293 294 296 294 296 297 297 297 298 298 298 298 298 295 290 293 285 287 288 285 291 293 293 292 294 296 295 296 294 288 292 299 299 298 296 295 294
300 301 301 301 302 303 303 304 305 305 305 305 311 305 303 305 306 303 302 297 289 291 293 287 291 293 294 292 293 293 293 293 294 293 295 296 294 294 294 296 299 299 301 298 296 297 292 292 288 287 290 288 284 285 294 293 296 298 298 298 298 298 292 295 290 287 290 286 284 286 284 281 286 294 297 298 298 298 299 296 291 299 300 300 297 294 294
300 300 301 301 302 302 303 304 304 305 305 305 310 304 304 308 310 308 302 295 294 286 290 295 295 295 294 293 293 292 290 290 291 293 294 294 293 296 297 298 300 301 299 296 296 292 291 287 285 286 284 285 289 288 285 292 291 295 298 298 297 298 298 294 291 288 288 286 283 282 279 282 290 293 295 297 297 299 300 293 288 296 300 299 297 295 295
300 300 301 301 301 302 303 303 304 304 304 304 307 304 302 309 308 305 300 297 295 288 295 295 297 296 294 292 294 292 293 290 292 287 288 290 292 293 296 298 302 300 296 296 295 292 289 287 290 289 289 290 286 285 291 289 289 290 295 297 295 294 293 292 288 286 287 286 284 283 285 282 291 294 294 295 297 297 295 284 284 294 299 299 298 296 296
300 300 300 300 301 302 302 303 304 304 304 304 307 305 302 309 311 309 302 297 292 291 294 296 294 292 290 292 292 294 295 295 294 296 292 294 293 292 293 295 295 298 300 293 292 289 287 287 285 285 285 291 291 291 283 289 284 286 289 291 291 290 290 290 286 287 287 285 286 286 284 289 294 294 295 296 299 296 285 281 288 297 298 299 298 298 299
300 300 300 300 301 301 302 303 304 304 305 304 307 306 302 307 309 310 303 297 295 288 295 297 297 295 297 298 297 296 295 295 294 291 289 290 292 294 296 296 297 291 296 291 292 288 286 286 291 289 287 289 291 285 292 286 285 290 290 287 288 288 288 288 289 286 285 287 284 284 284 287 294 296 294 296 293 284 283 291 299 299 298 299 299 297 298
299 300 300 300 300 301 302 303 303 304 304 305 305 303 303 306 308 308 302 295 295 292 294 295 295 293 296 294 292 291 294 294 294 293 290 287 295 296 295 290 295 296 293 295 286 290 288 285 287 291 286 287 290 293 287 287 291 288 289 290 287 286 284 284 284 287 287 286 283 283 278 286 295 294 293 296 287 287 294 296 297 299 298 298 297 297 297
299 299 299 300 300 301 302 303 303 304 304 304 304 307 301 307 309 308 308 304 298 291 292 298 297 295 295 295 296 295 294 291 293 291 294 293 296 294 285 284 289 292 288 290 285 285 288 286 289 287 290 289 289 289 284 286 288 293 291 290 289 292 285 285 286 288 283 283 280 279 285 292 296 295 288 292 294 297 298 297 294 297 297 296 296 296 297
299 299 299 300 300 301 302 303 303 304 304 304 304 310 301 304 306 306 307 304 296 292 294 298 299 298 298 298 298 299 297 296 297 297 294 293 296 294 294 294 292 293 294 294 291 290 293 291 292 287 286 288 292 286 289 285 283 289 293 292 283 292 289 290 285 290 286 285 286 290 294 294 296 296 294 295 297 298 299 297 296 294 294 297 295 295 296
299 299 299 299 300 301 301 302 303 303 304 304 305 307 301 304 303 307 308 299 300 300 301 300 300 300 300 299 300 300 300 300 301 300 299 294 292 294 292 292 292 297 297 297 291 292 292 291 287 291 289 290 287 286 288 288 285 288 285 291 291 294 294 296 293 289 294 294 294 295 294 294 294 297 297 297 297 298 298 296 294 295 295 295 293 294 295
300 299 299 299 300 300 301 302 303 303 303 304 304 307 304 304 304 306 303 301 296 293 296 300 296 290 293 294 298 300 299 299 300 301 302 300 290 290 295 294 296 298 296 297 296 293 290 290 290 293 286 290 291 286 284 283 286 289 288 288 291 293 294 292 288 292 289 283 292 291 292 294 294 294 296 296 297 296 296 296 295 295 295 294 295 294 293
300 299 299 299 300 300 301 302 302 303 303 304 305 308 308 306 307 305 303 293 293 293 288 290 292 296 297 300 301 299 299 301 302 301 300 300 297 292 290 294 297 295 294 296 299 297 293 288 291 289 284 291 292 285 290 286 286 291 285 287 289 288 295 290 290 289 286 286 291 292 294 294 295 295 294 294 295 296 297 296 296 295 295 295 295 295 295
300 300 299 299 299 300 300 301 302 302 303 303 304 307 302 302 306 308 305 303 300 294 290 288 292 299 300 299 296 297 300 301 300 300 300 298 298 299 298 298 299 299 298 298 297 292 291 289 289 289 288 288 294 288 288 290 289 292 289 287 291 291 293 286 290 287 290 292 292 292 293 294 294 295 296 296 295 295 296 296 296 296 295 295 295 296 296
300 299 299 299 299 300 300 301 302 302 302 303 305 308 305 305 307 304 302 302 298 290 292 289 293 295 297 296 298 300 300 300 301 300 298 298 298 299 299 297 296 297 297 296 294 291 291 289 288 288 291 290 293 292 291 289 290 287 287 291 293 291 287 291 289 285 285 285 289 292 286 286 291 293 294 295 297 297 295 296 296 296 295 295 295 295 296
300 299 299 299 299 299 300 301 301 302 302 302 306 307 307 305 305 305 306 305 301 293 292 291 293 294 300 295 298 299 299 300 300 299 298 297 298 298 297 296 296 295 294 293 289 289 289 287 288 289 289 292 290 288 292 292 291 289 289 290 293 289 290 290 286 285 284 290 292 293 293 292 293 294 295 296 296 296 294 294 294 295 294 295 295 295 295
300 300 299 299 299 300 300 301 301 302 302 302 307 306 305 305 307 306 305 307 306 301 295 294 296 296 290 294 299 299 299 301 300 299 298 297 297 298 297 296 295 295 295 292 290 290 289 288 290 289 289 293 290 287 289 284 284 283 288 292 293 293 295 293 292 292 292 294 294 294 293 291 293 295 295 295 296 296 295 295 294 294 295 295 295 294 292
300 300 300 299 299 300 300 301 301 302 302 305 304 303 298 301 306 306 305 306 306 302 294 289 287 290 297 297 298 297 297 299 299 299 298 297 297 296 295 296 295 296 295 289 290 286 288 288 289 294 295 296 288 287 283 286 285 287 292 292 292 293 293 294 294 292 290 294 294 294 294 294 295 296 296 296 296 296 295 295 295 295 295 295 294 295 295
300 300 300 300 300 300 301 301 301 302 301 305 303 295 292 290 301 306 304 306 307 302 295 293 289 293 293 297 298 296 296 296 298 297 297 297 298 296 297 298 297 295 291 291 290 288 289 287 288 290 293 292 288 286 286 286 284 287 289 292 292 292 293 293 295 295 295 295 295 295 294 294 295 294 294 295 295 295 295 295 294 293 294 294 295 294 294
300 300 300 300 300 301 301 301 302 302 306 304 300 298 298 298 302 305 305 306 307 303 295 289 287 289 289 292 297 298 297 297 298 299 297 297 297 297 298 296 293 296 291 289 289 290 287 287 287 289 290 291 288 286 287 286 283 284 290 291 292 293 293 293 293 294 294 295 294 292 291 292 293 292 291 295 295 294 295 295 295 296 293 293 295 295 295
300 300 301 301 301 301 302 302 302 302 306 303 302 303 302 301 302 304 306 307 305 301 299 291 287 287 287 292 296 297 297 298 297 298 295 297 296 296 293 296 297 295 297 291 288 287 291 288 288 287 291 292 287 286 286 285 286 290 291 291 292 292 292 293 293 294 294 294 294 289 288 289 291 293 294 295 295 295 293 294 295 295 294 293 293 293 294
301 301 301 301 301 301 301 302 301 299 299 303 302 303 307 301 305 303 305 306 302 300 295 290 285 285 287 294 291 294 298 294 293 294 290 296 297 297 292 295 295 289 292 289 290 289 291 289 288 287 290 288 288 285 281 286 290 290 291 292 292 292 292 292 292 292 293 293 294 294 293 294 295 295 294 294 294 295 295 293 293 293 292 292 292 293 293
301 301 300 300 301 302 301 301 304 303 302 301 301 306 305 301 301 302 305 304 293 290 289 289 290 286 286 287 287 291 297 295 291 293 290 293 297 293 293 290 291 288 290 295 288 288 288 288 291 285 285 289 285 281 283 287 289 290 291 290 292 292 292 290 291 292 293 294 294 294 294 294 293 292 292 293 293 294 293 293 293 292 291 292 292 292 292
301 300 301 301 301 302 305 302 305 301 299 300 303 304 302 302 304 309 308 307 300 292 288 288 288 287 288 284 284 288 297 293 295 295 293 291 294 296 294 290 286 289 294 290 286 291 287 292 288 284 289 284 282 284 287 290 289 290 291 291 292 292 291 291 291 292 293 294 294 294 293 293 292 292 292 292 292 293 293 293 293 292 291 291 291 291 292
301 300 299 300 303 303 300 297 302 303 303 302 302 301 300 302 306 306 305 303 304 301 294 288 288 289 290 287 289 291 294 287 292 289 292 289 288 290 290 288 286 287 288 287 288 286 290 294 287 283 284 283 285 290 291 291 291 290 291 292 293 293 293 293 293 293 293 293 293 292 292 291 291 292 292 292 292 293 292 292 292 292 291 290 291 291 291
300 299 303 301 302 293 293 295 301 304 301 301 301 301 302 301 294 294 294 292 296 296 293 294 289 292 293 291 286 293 291 289 293 288 288 291 287 288 290 288 287 286 282 285 288 292 289 286 284 284 284 290 292 292 292 292 292 292 293 293 293 293 293 293 293 292 291 290 289 290 291 290 290 291 291 291 292 292 291 293 293 293 292 292 292 292 292
302 302 302 300 298 292 293 301 305 299 303 303 302 296 292 294 292 289 289 291 291 290 292 292 289 292 291 289 289 295 293 288 287 289 285 291 287 284 288 283 288 286 283 284 286 292 283 285 285 285 283 287 288 290 292 293 293 293 294 294 294 294 294 294 294 293 291 291 291 292 291 290 290 290 292 292 292 293 293 293 293 293 293 292 292 292 292
304 299 294 295 294 297 303 304 300 301 302 295 295 292 287 291 288 285 291 288 287 290 292 287 292 293 293 290 289 289 296 292 286 286 287 288 294 285 287 286 287 284 279 281 284 291 283 280 284 283 282 286 287 290 291 292 292 293 294 294 294 294 294 294 294 295 294 294 294 293 294 293 293 292 292 292 292 291 292 293 293 293 292 292 291 291 290
300 300 298 294 300 301 302 305 304 302 295 290 289 288 288 284 289 289 288 286 286 286 293 292 292 291 293 294 292 288 296 298 296 295 290 286 292 291 286 282 288 282 280 281 287 287 285 283 282 282 283 287 289 291 292 292 292 292 294 294 294 294 294 294 295 295 294 293 293 293 293 293 293 293 293 293 293 292 289 291 292 292 293 292 292 292 293
299 298 301 304 302 302 302 300 297 291 290 291 286 281 286 286 288 288 289 284 284 288 290 290 287 288 289 291 291 293 292 297 293 290 288 284 288 286 284 286 286 280 277 285 287 286 284 279 280 281 286 289 290 291 292 291 291 292 293 294 294 294 294 294 294 294 295 294 293 293 294 294 293 293 293 293 293 293 292 293 292 293 292 293 293 293 293
297 298 301 301 299 295 296 290 291 290 282 282 282 280 284 282 285 285 285 288 290 290 290 296 295 295 296 296 294 295 292 297 290 289 287 284 289 288 284 283 282 277 283 289 285 282 280 279 279 283 288 289 290 290 291 292 292 292 293 294 294 295 294 294 293 293 294 294 294 293 293 293 293 294 294 294 293 293 293 292 293 293 293 293 293 294 293
302 301 298 294 291 290 291 279 290 286 283 285 282 277 281 281 283 285 284 286 289 289 292 289 290 289 286 292 290 290 291 293 292 290 288 289 286 284 282 279 280 286 289 284 283 279 280 282 284 286 289 290 291 291 291 292 292 292 293 293 294 294 294 294 294 293 293 294 294 294 294 293 293 294 294 294 294 293 293 293 293 293 293 294 293 293 293
295 292 291 289 286 288 286 278 289 285 279 281 285 284 284 282 284 286 285 289 292 290 291 292 292 291 288 292 293 291 289 287 291 285 283 286 283 284 281 280 285 285 282 279 281 282 282 281 286 287 288 288 290 291 292 292 292 292 292 293 293 293 293 293 293 293 293 293 293 294 293 293 293 293 293 293 294 294 294 293 294 293 293 293 293 293 293
291 289 287 283 278 285 285 280 284 281 286 287 286 288 287 288 289 289 292 293 291 292 291 291 291 291 288 291 286 286 289 289 286 286 287 286 281 279 285 288 286 280 279 280 278 277 280 283 286 286 289 289 290 290 292 292 293 293 292 291 292 293 294 294 294 293 293 293 293 293 293 293 293 293 293 294 294 294 294 294 295 294 294 294 293 293 293
291 290 290 288 283 285 288 282 284 287 288 289 290 291 291 291 292 293 294 293 292 294 293 294 292 292 287 288 289 289 289 289 284 287 287 282 280 283 287 282 277 279 276 275 277 279 282 285 287 287 289 290 290 290 291 292 292 292 292 293 292 292 294 295 295 295 295 295 294 293 293 293 293 293 293 293 294 295 294 295 295 295 294 293 293 294 293
287 291 290 282 281 285 283 286 292 291 292 293 292 293 293 293 292 291 293 294 294 294 292 292 289 290 288 292 290 285 287 288 284 285 286 284 285 281 280 279 278 280 281 279 280 284 285 286 287 288 291 292 291 291 291 291 291 292 293 294 293 294 294 294 295 295 295 295 295 295 295 295 294 293 293 293 293 294 294 295 295 296 295 294 293 294 293
292 289 286 285 287 287 288 291 290 288 289 291 292 293 292 291 290 292 293 295 293 293 293 291 289 288 285 288 286 285 283 287 281 281 285 282 278 276 276 274 276 276 282 284 284 286 286 288 290 290 291 291 291 291 291 291 292 293 294 294 294 294 294 294 295 295 296 295 295 294 294 294 295 295 295 294 293 294 296 297 297 296 295 294 293 293 293
290 289 289 288 287 289 292 292 289 287 290 290 290 290 292 290 291 292 295 293 294 293 294 291 290 286 286 286 282 284 283 286 284 284 282 279 280 281 279 276 279 279 281 285 285 287 288 290 290 290 290 290 291 291 291 293 292 293 294 293 293 294 294 295 295 296 296 296 295 295 294 294 293 294 294 294 295 295 295 296 297 296 296 295 294 293 293
293 290 290 294 289 288 289 284 285 285 287 287 289 289 291 290 290 291 296 294 294 291 288 286 286 285 284 283 282 278 281 287 283 281 281 280 283 281 279 278 281 284 285 287 289 289 289 290 290 288 289 291 292 293 293 293 293 294 294 294 294 293 294 295 295 296 296 296 296 292 295 294 294 294 295 296 295 295 295 295 296 296 295 295 295 294 293
289 286 287 291 293 292 292 291 290 289 290 291 290 292 292 290 293 294 296 293 292 287 285 288 286 284 282 279 282 285 287 284 281 282 280 283 285 281 281 283 285 286 288 288 287 290 290 291 291 289 291 292 291 293 293 294 294 294 293 293 293 293 293 294 294 295 295 296 296 296 296 296 296 295 295 295 295 295 293 293 295 296 295 295 295 295 294
Wind_Speed
21 22 25 26 26 24 24 25 23 23 23 11 8 8 7 3 4 5 5 2 5 7 7 7 6 7 9 6 5 7 4 7 10 12 9 11 9 11 10 10 11 12 10 8 10 9 8 8 7 5 8 5 7 7 4 4 5 6 7 12 4 1 3 4 8 10 7 3 3 3 5 7 10 9 10 7 11 12 11 9 7 7 5 8 7 7 4
21 22 25 26 26 25 25 24 23 21 18 9 10 8 6 3 3 3 7 3 3 6 4 4 4 6 6 4 9 7 8 8 10 11 11 8 7 10 9 10 11 11 8 7 9 6 6 7 8 3 1 5 7 3 5 1 3 3 3 3 4 4 7 10 7 7 8 11 9 8 7 8 10 9 9 13 12 11 9 9 8 7 7 10 6 4 4
21 22 24 26 26 25 25 25 23 22 19 12 6 6 6 5 3 2 5 5 3 2 3 4 3 5 6 6 6 7 8 5 8 8 9 6 7 6 8 9 4 7 7 10 10 10 8 6 6 7 7 7 8 6 3 5 3 6 8 8 3 3 5 3 8 7 9 9 8 5 5 10 8 11 11 7 12 11 9 6 5 8 7 11 7 4 4
21 22 24 25 26 26 25 25 25 23 20 16 6 7 7 3 3 4 1 3 3 3 4 3 5 3 4 2 4 5 6 5 7 7 6 5 8 8 8 7 7 11 9 8 10 11 9 9 5 6 4 5 5 6 12 8 7 7 8 7 6 2 3 2 3 2 2 3 4 4 7 6 10 12 11 8 5 7 8 7 6 9 7 9 9 13 12
20 21 24 24 26 25 25 26 26 25 23 14 6 7 5 2 3 3 4 3 2 3 6 6 5 2 2 2 3 4 6 3 1 0 5 3 7 6 6 7 6 7 9 9 9 11 10 8 10 8 9 4 4 4 2 7 6 11 6 6 1 2 2 3 2 2 5 8 7 9 7 8 9 6 5 6 6 5 9 8 8 5 5 5 10 19 15
20 21 23 25 26 26 25 26 27 26 26 20 6 5 4 2 3 3 5 5 5 3 5 8 5 4 5 2 3 2 2 2 1 3 2 3 3 7 2 9 8 8 9 7 6 7 8 9 5 5 8 1 3 5 8 6 9 10 7 11 9 8 6 5 3 5 5 8 11 13 12 5 4 3 3 3 4 5 6 1 3 3 5 1 9 11 15
20 21 22 25 26 25 25 26 28 28 28 21 7 4 4 3 2 5 2 1 6 7 6 7 6 5 8 3 6 5 6 5 5 5 3 0 6 6 0 7 3 5 6 6 5 2 8 2 3 5 5 6 4 4 4 4 9 10 7 9 8 7 7 10 9 5 4 5 6 7 8 8 4 5 3 3 3 4 4 6 7 7 9 12 12 16 15
20 21 22 25 26 25 25 27 27 28 29 18 5 8 6 5 6 2 2 5 4 4 3 4 3 6 9 1 9 6 6 7 8 7 7 4 7 9 5 6 5 5 4 2 4 8 7 7 2 5 8 2 4 2 2 2 9 9 8 8 8 8 3 5 7 6 6 8 8 8 9 9 10 5 6 6 6 8 8 8 10 14 13 14 15 16 12
20 21 22 23 25 25 25 25 26 28 27 5 7 6 7 4 4 4 6 3 5 3 4 4 5 5 8 6 7 7 9 7 12 5 9 8 7 8 8 8 5 8 8 9 9 8 6 5 5 4 5 3 4 6 4 4 4 8 6 7 7 4 2 6 8 5 5 8 10 9 10 10 11 8 5 3 2 5 7 6 8 6 10 12 13 10 8
20 21 22 23 25 25 25 24 25 26 26 7 7 7 5 3 2 3 6 2 5 3 4 5 3 5 5 4 4 6 8 5 12 1 7 9 9 10 10 10 5 6 8 10 10 9 6 5 5 4 3 4 3 1 2 2 2 3 6 6 3 7 4 5 6 8 6 10 10 9 9 7 9 8 9 5 7 7 8 10 10 10 3 9 4 7 10
19 20 21 22 24 25 25 24 23 23 15 8 7 7 6 7 6 5 5 2 2 5 3 7 6 3 1 3 3 5 6 8 9 5 3 10 10 11 10 11 9 6 10 10 10 8 7 5 4 2 3 2 2 1 2 2 2 3 2 1 2 4 4 4 7 8 5 10 11 9 7 9 5 3 7 5 9 7 6 5 6 8 7 7 10 12 13
18 19 20 22 22 24 25 23 22 20 16 8 8 5 6 6 6 5 4 1 2 3 5 7 6 5 7 3 5 4 2 4 5 6 5 8 11 11 11 9 9 5 10 10 9 6 5 4 4 2 2 1 1 2 2 3 2 1 2 2 4 8 9 9 3 0 6 7 9 8 10 6 7 1 5 7 7 8 12 8 7 8 11 15 16 16 16
18 19 20 21 21 23 23 23 22 21 20 11 7 7 6 6 7 6 4 3 3 5 4 7 5 7 5 7 5 3 3 4 3 5 3 7 9 10 10 9 9 9 11 11 10 6 4 3 3 4 3 3 4 3 2 2 3 3 3 2 3 3 4 4 4 6 1 2 7 7 1 7 3 5 3 6 6 9 10 9 6 6 9 13 14 14 12
18 18 19 20 21 22 23 22 22 22 21 16 7 7 7 8 7 5 3 2 3 5 7 2 7 7 8 7 7 3 2 4 4 3 1 1 4 8 10 10 9 8 8 9 8 6 4 3 2 3 7 6 6 6 8 3 1 3 3 1 2 2 6 2 3 0 3 6 5 2 5 6 6 4 4 2 2 4 5 4 6 6 8 12 15 15 15
18 18 19 20 21 21 22 21 22 22 21 20 9 5 7 8 7 6 5 3 3 5 8 5 6 8 7 6 8 6 5 5 5 3 5 2 4 2 1 8 8 7 8 8 6 3 3 1 3 4 5 8 7 7 7 5 5 0 1 4 3 4 3 3 2 2 4 4 6 4 3 8 4 6 5 3 3 7 6 5 6 4 7 10 14 16 16
17 18 18 19 20 21 21 21 21 22 20 23 9 6 6 7 7 7 5 3 4 3 7 6 6 7 6 6 7 8 5 3 4 5 3 5 6 4 5 6 5 6 6 7 5 3 2 3 3 6 2 4 7 1 5 3 3 5 1 2 3 1 6 6 6 6 5 6 9 5 6 2 2 6 5 5 3 4 5 3 4 5 7 9 12 14 14
17 17 17 18 19 20 21 21 21 21 21 20 10 6 7 9 8 8 6 7 7 6 7 9 5 5 4 6 6 6 7 5 6 6 4 4 6 8 8 8 3 3 5 6 4 4 5 5 6 4 3 3 3 1 6 3 1 2 5 5 2 3 3 4 8 8 7 8 8 5 3 3 2 5 4 4 3 3 5 7 4 7 9 9 11 12 13
16 15 16 18 18 19 20 20 21 21 20 21 12 6 7 8 9 10 5 4 4 6 7 9 10 7 7 6 6 6 6 5 7 2 4 1 5 8 8 8 8 5 9 3 4 1 2 2 4 4 3 5 5 3 3 5 1 3 3 4 2 1 2 3 8 7 6 7 8 3 4 4 5 6 6 5 3 4 4 4 6 7 10 9 10 11 11
15 15 15 16 17 19 19 20 20 21 21 20 13 3 6 8 9 11 5 5 4 5 7 8 7 8 8 4 6 6 5 7 8 4 5 3 6 10 9 3 6 5 7 3 4 2 2 0 2 2 4 3 2 2 4 1 3 3 4 5 4 2 2 4 3 6 6 5 7 2 6 4 7 3 3 5 3 3 2 7 5 7 8 9 8 8 7
15 14 15 15 16 18 19 19 20 20 20 20 14 4 5 8 8 9 8 5 5 6 6 8 9 11 9 10 8 8 8 6 9 7 6 6 9 12 6 2 6 7 5 6 3 4 3 1 3 4 3 4 5 4 1 2 2 5 5 1 4 4 2 4 2 3 3 3 6 6 2 4 7 5 1 7 2 5 5 7 7 5 9 9 8 6 6
15 14 14 15 15 17 17 18 19 19 20 20 14 6 4 6 7 8 7 7 2 2 5 7 8 10 10 10 9 10 10 9 9 8 8 7 9 7 4 4 7 5 4 5 4 4 3 5 4 2 1 6 3 4 2 1 2 6 7 4 3 5 5 3 4 4 4 5 2 4 4 3 6 6 2 6 8 4 6 7 8 7 7 8 7 6 6
14 14 13 14 14 16 16 17 18 18 20 20 20 8 3 4 4 4 6 6 6 4 5 5 6 8 8 9 7 8 9 9 9 9 8 6 6 7 4 5 6 6 5 6 4 2 2 2 3 3 1 1 3 1 4 3 2 3 3 5 3 8 3 5 3 4 2 4 3 3 1 5 6 7 7 8 7 5 5 7 7 7 7 6 7 7 6
14 13 13 13 14 15 16 16 17 18 19 20 16 5 5 3 3 4 7 3 3 3 3 3 2 4 5 8 6 6 7 7 7 7 9 9 3 5 6 6 6 4 5 6 7 6 4 6 2 4 2 3 5 3 4 4 1 2 1 5 5 4 4 2 1 6 8 7 6 4 5 5 7 7 7 7 8 7 8 8 7 7 9 7 6 6 5
13 13 12 13 13 14 15 16 17 17 18 17 12 6 4 3 4 6 3 2 2 1 3 2 1 4 6 8 7 7 7 7 8 7 8 9 7 2 5 7 7 3 5 6 5 6 5 4 4 5 2 4 6 4 3 0 1 2 2 2 4 4 2 0 0 4 3 4 5 6 6 6 7 8 8 9 7 7 7 8 7 7 8 8 7 6 5
13 13 12 11 12 13 14 15 15 16 17 16 15 6 4 1 4 5 6 1 1 3 1 2 4 5 4 2 3 5 6 4 4 7 7 8 9 7 6 6 6 7 6 5 4 6 2 3 2 1 2 3 5 2 2 4 2 4 2 2 1 3 3 1 1 1 0 7 7 7 7 6 6 6 6 7 7 7 7 7 7 7 7 6 6 5 6
12 12 12 11 11 12 13 13 14 15 15 18 17 6 5 5 5 5 6 4 3 2 1 2 4 1 3 2 6 4 4 5 6 4 6 5 5 5 5 3 1 0 4 3 5 4 3 1 2 3 4 4 4 4 3 4 3 2 3 3 5 3 3 1 1 3 7 9 8 7 7 6 5 5 5 6 6 7 8 7 7 7 7 7 6 5 5
12 12 11 10 10 11 12 13 14 14 14 15 10 5 4 4 5 6 6 6 5 2 1 3 3 3 2 5 2 1 4 3 3 4 4 7 7 4 3 5 4 1 2 1 3 3 2 1 3 4 5 4 5 4 5 2 3 1 2 5 1 4 2 2 2 2 2 2 6 8 3 3 6 6 6 6 5 6 6 6 5 3 4 4 4 6 5
12 11 12 10 10 10 10 12 12 13 13 14 10 3 2 3 4 5 6 6 7 3 4 1 4 5 0 4 3 3 5 5 5 3 4 5 6 5 5 5 4 4 3 4 2 0 2 2 5 0 1 4 6 2 1 3 2 5 3 3 3 4 6 6 2 2 1 4 7 3 3 4 7 6 6 5 3 4 3 3 1 4 2 4 3 1 4
12 11 10 10 9 10 10 11 11 12 13 12 6 3 2 3 3 5 6 5 6 6 4 3 2 5 0 5 3 2 4 3 4 4 3 4 5 5 3 5 5 4 2 2 1 0 2 3 2 5 4 5 4 3 2 5 4 1 6 2 2 5 3 3 3 1 5 5 5 1 2 5 6 6 4 4 1 1 3 2 2 3 4 3 1 1 4
13 12 11 10 9 10 10 10 11 10 11 7 5 5 3 4 4 5 7 6 6 5 4 1 2 3 2 1 2 3 4 4 4 4 5 4 4 4 5 5 4 4 3 2 3 2 2 2 2 2 2 3 4 3 2 7 4 4 6 5 5 2 3 4 5 5 4 5 5 3 4 5 4 4 3 3 2 4 3 6 6 2 0 1 3 7 4
14 13 12 11 9 9 10 10 10 11 10 5 4 2 3 2 6 6 9 7 6 5 3 4 2 3 2 3 2 4 3 4 4 3 2 3 4 2 3 4 1 5 3 0 1 3 2 2 1 2 2 4 3 3 7 2 1 7 6 3 1 2 2 4 2 4 3 4 4 5 4 3 2 3 3 2 3 2 2 0 2 6 8 3 4 3 3
15 13 10 9 8 8 9 9 9 11 8 5 5 5 5 5 6 8 9 7 6 5 3 3 0 2 2 2 2 1 2 2 4 6 4 6 6 5 1 4 4 4 4 4 2 1 3 1 1 3 1 5 2 3 4 4 2 2 4 2 1 1 3 1 1 1 2 2 3 2 1 1 1 5 4 2 3 2 2 2 2 7 4 4 4 1 2
15 13 10 7 6 7 8 8 8 6 4 6 5 9 8 3 6 7 6 6 5 4 3 3 1 1 1 5 4 2 3 4 4 4 3 4 3 4 1 2 1 2 3 5 1 2 2 1 1 5 5 0 3 3 5 3 4 2 2 3 2 1 2 1 1 1 2 2 2 2 1 1 2 3 2 1 1 2 1 4 7 4 3 4 3 2 3
14 11 8 6 5 5 6 6 5 4 4 3 3 3 5 10 6 2 7 5 4 2 2 2 1 4 2 3 4 4 5 5 3 3 0 5 2 5 3 3 2 2 2 5 3 4 5 1 4 4 2 2 1 2 2 2 2 1 3 2 4 3 2 3 2 2 2 2 0 1 2 2 1 1 1 1 2 2 2 2 3 3 3 3 3 3 3
13 10 6 4 5 5 4 6 4 5 4 2 2 4 5 8 8 9 7 4 3 2 1 1 3 2 1 2 2 4 1 7 2 3 3 3 0 5 3 4 1 2 4 2 3 1 4 1 4 4 1 5 0 1 3 3 4 2 2 3 4 4 5 4 4 3 2 1 1 1 2 3 3 3 2 2 4 5 3 4 4 2 4 4 2 3 4
12 8 4 4 5 7 4 4 6 4 3 2 4 5 6 8 8 6 3 4 4 3 2 2 3 2 1 1 2 2 3 2 1 1 3 2 3 2 3 3 2 4 2 2 4 2 0 7 1 4 2 2 1 3 0 3 1 1 1 3 3 5 4 5 4 4 3 3 2 1 2 2 4 3 3 3 4 2 2 4 4 3 4 3 4 3 3
10 6 2 4 5 5 5 0 1 3 4 4 6 10 9 8 5 4 5 4 4 3 4 1 4 1 3 3 2 2 2 1 3 3 1 2 3 0 3 3 1 3 2 3 3 2 4 1 3 4 4 3 1 2 3 2 3 4 3 3 3 4 5 5 5 5 5 4 4 4 4 4 4 3 3 5 4 1 3 5 4 5 4 5 4 4 3
7 7 4 5 6 2 1 1 2 3 4 5 4 4 4 5 2 2 2 1 2 2 2 4 2 2 1 4 2 4 4 1 1 2 2 3 4 0 1 3 2 2 4 3 2 3 2 2 3 4 3 5 3 1 2 3 4 2 5 5 5 5 5 5 3 4 6 5 5 5 4 4 4 4 4 5 5 4 3 4 5 4 4 3 4 4 4
8 5 7 3 3 0 2 4 3 2 4 3 3 2 1 1 1 0 0 2 2 2 1 2 1 1 2 2 4 3 4 4 4 3 2 3 3 2 2 4 2 2 4 4 2 2 4 2 2 2 4 2 4 2 1 3 4 4 5 5 5 6 5 5 5 6 5 5 4 2 3 5 5 5 3 5 4 2 3 6 5 5 3 3 4 5 4
6 4 1 2 0 4 3 6 6 3 4 2 2 2 0 2 2 2 2 2 1 1 1 0 3 3 3 4 2 3 2 5 4 3 4 1 2 4 2 3 2 3 4 4 2 1 4 4 2 3 3 0 5 6 3 3 5 3 3 4 5 7 7 6 6 5 4 2 3 2 1 2 3 4 3 4 3 4 6 8 6 4 5 3 8 7 5
3 1 2 1 4 1 2 1 4 4 2 1 1 1 0 0 1 1 1 2 1 2 2 1 3 2 0 2 3 2 4 2 2 3 3 3 3 3 2 3 2 3 3 4 1 2 3 3 3 4 3 1 1 1 3 4 4 3 2 3 4 5 7 7 6 4 4 5 4 2 2 3 3 3 3 3 1 5 3 2 2 4 5 5 3 4 2
5 5 5 4 2 1 2 3 2 1 0 1 0 0 0 0 1 2 1 1 1 1 5 2 1 1 2 4 3 5 2 3 3 2 2 2 2 3 3 3 1 3 4 2 2 3 3 3 3 4 1 2 2 2 3 4 3 4 3 2 3 4 5 6 5 5 6 5 3 2 2 2 3 3 3 3 3 4 5 6 6 5 3 4 4 5 5
6 5 4 4 3 2 2 1 1 1 1 0 0 1 1 2 1 1 2 1 0 2 3 2 1 0 2 3 2 1 3 2 2 0 2 1 1 2 2 2 1 4 3 4 3 3 4 4 4 3 1 2 1 3 3 3 4 5 3 1 3 3 3 4 5 5 6 4 2 1 1 1 2 2 3 2 2 4 4 5 6 5 5 5 4 4 3
2 3 3 1 1 0 1 1 1 0 1 1 2 2 2 2 3 2 2 2 1 1 3 2 0 4 1 2 4 0 2 3 1 2 2 0 2 1 1 3 4 2 2 4 3 5 4 3 3 5 1 2 1 2 2 3 4 5 4 3 3 4 5 5 5 5 5 3 2 1 2 1 2 1 2 3 3 4 5 5 5 5 3 3 4 3 3
2 2 1 1 0 1 0 1 2 1 2 2 2 1 2 1 1 1 2 2 3 3 1 1 4 3 4 1 2 1 2 1 2 1 1 1 4 2 3 4 2 3 4 5 4 4 2 4 1 1 1 2 1 1 2 2 3 4 5 4 3 4 5 6 6 6 5 5 4 3 3 2 2 2 2 3 4 4 5 5 5 5 5 6 5 3 2
2 2 2 2 0 2 1 1 1 2 1 2 2 1 2 3 2 3 3 1 3 1 1 2 3 3 4 1 1 1 1 2 3 1 1 2 3 4 2 3 3 5 5 5 5 5 4 3 1 1 1 2 1 2 4 3 3 3 4 4 3 4 6 7 8 7 7 6 5 5 5 4 3 2 3 3 4 4 5 5 5 4 4 4 3 3 2
2 1 2 2 0 1 1 2 2 0 2 2 2 2 3 2 3 4 4 2 3 2 4 3 4 2 4 2 2 2 2 1 2 1 1 4 3 2 1 3 4 4 4 5 5 4 4 2 1 1 1 2 2 3 4 4 4 4 5 4 3 5 6 7 7 8 8 7 7 7 6 6 5 4 4 4 4 5 5 6 6 6 5 5 4 3 2
2 0 2 1 2 2 4 2 1 1 2 1 3 2 2 0 2 3 2 0 2 3 3 4 4 1 3 2 1 3 2 1 3 3 2 3 1 3 3 4 5 4 4 5 5 3 2 1 1 1 2 2 4 5 5 5 5 5 5 6 6 5 5 6 7 7 8 9 9 8 8 8 7 6 5 5 5 5 5 6 6 7 6 6 5 5 4
2 2 1 1 1 1 2 1 4 3 3 2 1 2 2 2 1 0 2 1 2 3 3 4 2 2 3 1 3 2 4 1 3 2 1 2 2 3 3 4 4 5 3 3 4 3 3 2 2 2 3 4 5 5 5 5 5 5 5 7 7 6 6 6 6 7 8 8 9 9 9 8 7 6 5 5 5 5 5 6 7 6 6 7 6 5 5
2 2 1 2 2 3 2 1 4 2 4 3 3 3 1 2 2 2 2 3 3 3 3 3 1 2 2 1 3 2 4 2 2 1 4 5 5 4 5 7 6 5 4 3 3 3 4 5 4 5 5 5 5 6 6 7 6 6 7 7 6 6 6 6 7 7 7 8 9 10 9 8 8 7 7 5 4 3 5 6 7 7 7 7 7 6 6
1 2 2 1 3 1 2 4 3 3 2 3 2 1 1 2 1 1 2 3 3 3 2 4 2 3 2 2 2 3 2 0 3 5 5 6 3 5 6 7 6 4 4 3 3 3 5 5 4 3 5 7 5 5 6 8 8 8 6 6 6 7 7 7 8 8 8 8 8 9 10 9 8 7 6 5 5 5 6 6 7 6 7 7 7 7 6
2 3 3 3 5 5 4 3 2 3 3 1 2 1 2 3 2 1 3 3 4 4 4 1 2 3 2 5 4 3 2 3 4 4 6 4 3 6 6 6 5 5 5 6 5 4 4 5 5 5 6 5 6 6 7 7 7 9 9 8 8 8 8 7 8 8 8 7 7 8 9 9 10 8 6 7 6 6 6 6 6 7 7 7 7 7 6
Wind_Direction
343 343 345 345 344 343 342 340 338 340 341 337 349 325 268 330 23 64 18 38 246 256 262 253 249 245 253 273 301 294 279 270 260 264 245 234 225 256 224 230 242 239 265 257 258 240 251 253 237 187 130 303 49 113 164 186 206 245 226 218 43 180 219 266 259 237 216 186 238 248 256 283 257 244 270 245 228 219 235 249 270 267 245 240 237 233 111
345 344 346 346 345 344 341 339 338 339 350 330 305 289 302 326 19 140 67 15 251 267 292 300 267 270 265 309 279 277 288 269 248 234 251 257 235 221 228 244 235 265 241 267 273 264 262 257 270 174 261 156 240 89 78 302 109 260 36 292 32 230 202 238 228 226 231 215 187 216 207 230 235 243 229 242 253 256 247 244 232 252 251 258 261 248 126
346 345 348 348 346 344 340 340 338 340 338 334 300 307 337 286 196 244 62 12 353 359 339 313 298 304 301 301 276 263 247 250 291 310 294 271 271 280 264 270 287 250 249 252 255 267 273 280 252 303 176 148 151 195 182 279 59 84 70 32 160 228 350 252 242 234 227 224 210 228 219 219 231 234 238 275 255 245 255 241 223 247 234 247 240 94 108
347 346 349 349 348 345 342 340 340 337 338 337 293 281 282 347 334 358 109 26 19 44 2 340 301 287 286 282 286 287 264 212 239 256 243 260 272 268 281 274 254 258 264 259 250 253 239 247 273 244 236 135 175 140 199 190 194 116 101 82 34 63 96 296 348 23 70 2 351 341 293 289 258 220 229 236 249 274 280 280 254 248 252 231 244 144 140
348 348 351 352 349 347 344 341 338 338 335 343 318 291 301 315 1 347 348 307 16 9 19 11 336 337 330 276 354 292 275 282 176 262 255 230 286 271 256 284 263 252 253 261 254 246 246 224 251 260 257 94 76 176 192 173 116 128 148 180 20 252 201 119 99 352 333 348 11 16 331 293 256 252 205 225 226 232 243 244 254 312 6 266 80 133 131
351 351 352 354 352 350 347 343 341 340 334 333 311 292 351 314 60 339 38 327 7 347 26 5 4 335 239 41 319 324 323 352 328 284 263 283 268 274 242 258 251 255 245 235 248 238 252 251 236 244 240 171 144 187 175 184 152 174 193 181 205 205 231 198 240 222 308 307 308 329 328 338 352 24 20 298 265 226 221 230 297 320 262 277 132 122 114
353 353 353 356 355 352 351 347 344 341 334 326 286 327 93 32 102 56 295 326 34 33 24 11 37 27 5 74 20 27 19 48 51 354 338 336 26 334 89 290 296 264 241 239 225 285 235 181 40 11 315 247 212 192 155 138 153 194 181 192 196 222 230 220 211 219 193 233 264 274 282 338 355 38 30 63 59 67 63 71 55 82 95 117 126 111 107
354 354 354 356 355 354 354 352 348 341 338 320 46 24 351 38 328 61 118 85 62 52 41 18 48 61 6 4 9 358 13 17 19 41 17 27 15 358 23 348 8 22 16 35 66 47 27 22 40 17 346 252 20 248 32 158 180 196 182 175 187 220 173 183 200 221 211 213 229 228 247 248 273 336 7 48 79 72 68 76 82 89 93 99 102 102 106
355 355 355 355 357 356 356 355 354 344 341 359 31 61 17 25 353 344 316 52 3 39 50 42 39 50 33 31 11 14 16 357 324 54 15 47 18 9 7 337 338 60 57 51 46 28 15 5 8 328 349 333 20 318 124 327 211 205 156 200 132 205 155 180 204 221 210 198 205 211 219 229 233 236 244 285 37 64 46 57 24 109 125 118 113 107 123
355 355 354 353 357 357 357 359 356 352 334 6 14 38 355 293 168 259 296 39 296 312 57 71 54 55 39 31 18 22 6 353 338 39 359 23 23 10 360 348 309 72 37 27 13 355 341 333 328 331 294 290 303 27 16 340 319 246 207 145 190 231 216 199 204 222 220 194 193 192 194 208 228 222 218 141 92 94 85 65 46 32 114 158 167 101 129
355 355 353 353 356 358 358 358 359 358 351 19 357 21 3 357 341 316 305 347 25 17 43 59 47 29 212 114 32 50 22 11 10 2 13 351 12 7 7 10 3 50 28 358 340 323 322 310 294 269 263 256 169 148 102 113 9 336 332 209 162 191 250 248 214 238 239 193 192 189 206 224 233 39 14 130 144 142 108 76 40 35 40 71 96 120 126
357 355 354 353 355 357 357 357 356 358 356 335 317 13 11 336 299 284 303 23 59 43 57 55 30 28 1 52 128 87 34 26 5 0 5 351 348 359 3 12 6 14 359 333 327 320 280 259 224 198 243 181 178 112 117 81 91 318 276 282 226 191 184 228 144 347 262 183 182 206 223 224 68 190 60 52 73 100 110 99 78 82 90 100 107 125 145
358 357 354 354 354 356 357 356 354 354 355 340 331 21 359 337 302 327 353 8 49 17 51 73 55 45 17 359 349 92 126 157 192 255 251 352 346 349 357 351 355 350 329 329 327 300 255 226 189 217 152 181 210 193 96 132 66 44 17 354 290 263 229 239 233 216 322 198 194 208 170 75 96 84 82 63 108 112 113 97 104 120 121 122 123 126 121
358 356 355 354 353 354 356 355 353 352 350 347 329 19 358 351 345 345 359 1 67 38 325 94 37 24 17 20 346 305 213 155 174 205 92 312 339 1 350 334 343 322 319 317 296 284 283 227 219 198 201 200 189 226 180 142 23 344 332 53 12 348 268 227 258 3 220 227 208 215 114 151 103 124 115 225 141 199 220 232 126 139 141 140 135 132 127
357 355 354 353 353 353 353 353 352 350 348 345 307 11 20 6 354 341 333 308 87 62 22 32 1 342 352 20 2 355 21 353 304 155 119 147 44 99 102 311 322 326 312 300 295 243 255 291 251 225 221 212 203 214 191 185 113 320 286 284 298 282 289 359 275 224 243 269 245 180 204 241 141 72 78 6 9 359 7 82 120 160 156 140 138 137 140
355 355 354 353 352 353 353 352 352 350 351 346 325 37 32 10 329 304 325 358 310 40 27 16 343 321 329 29 11 12 359 348 357 275 185 48 17 15 35 338 331 303 310 285 262 284 307 265 242 253 265 276 249 71 305 172 139 130 245 236 254 305 262 261 262 264 256 260 265 253 251 44 12 88 23 44 353 317 336 273 189 147 153 150 141 139 141
354 354 353 352 352 352 352 352 351 352 349 354 336 14 32 9 341 335 347 58 58 69 26 9 343 319 350 27 12 24 357 8 346 2 358 9 19 5 16 351 311 299 336 288 289 257 222 211 242 266 212 13 322 189 216 247 199 100 122 176 169 242 225 232 240 253 246 251 260 276 68 118 56 46 11 21 341 50 269 235 169 146 143 154 146 149 148
354 354 354 352 351 352 352 352 351 351 351 347 341 348 34 1 348 332 317 56 77 74 45 19 20 22 26 2 4 8 344 355 341 308 306 7 30 7 360 3 351 35 317 329 299 294 315 313 279 255 259 75 309 343 283 54 84 273 343 326 321 179 275 245 255 252 261 271 268 141 124 66 10 21 348 8 325 293 221 252 123 168 137 147 141 149 151
354 353 354 352 351 352 352 351 351 351 349 349 335 287 38 359 356 340 325 61 61 71 44 29 36 41 12 14 20 350 27 348 340 340 357 340 22 336 316 346 324 352 352 13 341 24 315 204 254 298 281 135 186 323 331 311 287 297 275 254 234 231 303 273 274 264 256 258 252 285 56 14 342 12 358 357 286 206 103 87 127 118 135 130 134 126 142
353 353 353 352 350 351 351 350 350 350 348 347 344 7 41 0 354 0 351 62 69 73 49 34 24 43 38 30 21 20 8 24 1 358 15 4 352 318 272 179 39 347 16 346 63 1 339 41 8 322 281 261 71 338 63 171 343 331 316 322 281 23 324 274 280 339 293 254 257 245 209 61 324 356 162 14 336 93 136 111 83 108 109 113 106 119 107
353 353 351 351 350 349 350 349 351 350 347 344 344 313 55 27 0 348 358 332 341 75 65 36 47 44 34 43 30 18 26 23 11 0 352 5 353 324 44 27 355 359 11 348 5 31 342 3 20 339 18 321 72 215 282 43 209 69 335 344 33 13 278 287 69 12 303 308 324 34 43 24 29 325 51 65 55 75 103 119 114 106 105 103 107 105 117
352 352 351 351 350 349 350 351 351 351 347 345 336 298 91 50 6 13 331 355 54 72 67 52 47 58 51 46 41 31 29 18 23 3 354 347 31 22 45 42 31 10 18 329 291 157 227 60 240 319 334 344 215 280 11 250 267 44 71 340 242 39 22 359 358 30 333 37 88 150 117 55 64 77 95 94 87 93 106 99 123 128 113 114 110 108 109
350 351 349 350 350 350 351 351 351 350 347 345 342 337 32 15 68 334 295 81 96 104 196 128 156 112 99 68 52 34 41 33 18 14 5 344 337 55 26 12 38 352 16 1 354 347 26 320 32 329 318 43 346 318 206 263 63 325 351 46 42 73 43 350 3 88 90 68 64 99 88 80 85 92 96 117 121 112 114 119 111 94 68 55 85 97 86
347 348 346 346 347 350 350 350 350 348 346 340 333 327 26 25 345 310 280 47 315 115 113 30 194 41 18 31 24 43 41 44 19 14 5 357 350 68 88 41 340 313 56 17 353 335 5 334 16 300 1 26 336 307 339 329 38 338 270 139 59 43 314 311 148 143 214 90 105 94 106 105 87 80 69 60 72 73 75 89 95 101 99 98 90 87 70
342 344 342 341 342 345 347 346 346 346 343 338 331 284 260 326 10 324 320 325 275 271 59 83 57 29 38 353 10 50 30 351 31 26 19 24 18 9 23 20 3 350 360 348 316 284 262 302 221 218 85 35 330 356 79 314 92 351 317 61 221 104 343 275 83 125 78 124 124 119 112 122 123 121 112 109 99 99 96 97 98 98 94 100 102 102 91
341 342 339 337 336 339 341 343 341 341 341 335 322 333 30 24 349 318 269 270 300 310 249 93 96 195 248 41 42 24 353 356 15 16 28 24 54 21 2 322 208 164 296 333 314 334 344 317 353 350 331 69 327 318 24 29 326 57 303 51 5 26 265 321 48 99 110 120 133 133 135 118 115 101 86 109 130 127 127 122 121 118 112 108 95 76 79
339 339 336 332 332 331 335 337 337 335 336 334 324 348 16 45 18 8 358 351 304 194 210 104 92 110 96 85 28 7 25 9 4 353 33 29 15 27 356 4 332 259 304 313 24 298 297 30 1 19 7 35 328 16 322 220 312 305 264 87 179 257 290 21 251 139 191 155 148 155 159 167 146 130 125 125 128 129 133 140 116 119 110 104 109 91 86
338 337 334 328 327 326 326 331 331 330 329 323 294 305 6 27 40 20 5 354 327 351 338 97 149 83 310 83 3 34 22 17 13 350 19 26 29 10 11 11 1 11 24 310 232 191 322 318 61 70 219 34 299 168 70 341 317 254 298 46 344 7 8 324 339 338 28 99 153 139 12 77 131 129 128 126 110 105 131 119 130 89 63 40 3 239 185
336 330 327 324 319 319 323 321 327 323 325 308 282 268 170 47 45 42 14 344 312 303 300 59 107 195 168 58 333 38 63 10 31 15 4 15 21 344 35 18 11 3 22 332 359 12 33 61 5 358 23 359 308 294 127 226 180 296 68 349 59 44 346 33 19 2 81 86 133 19 12 110 123 124 135 130 160 232 88 76 106 289 14 340 57 19 28
330 330 320 320 316 317 317 319 318 319 319 292 257 250 221 134 54 27 11 339 331 317 296 265 235 85 129 168 60 11 16 46 43 38 6 1 8 358 19 352 33 337 5 26 331 34 40 74 72 79 63 316 301 328 316 305 334 81 83 71 22 44 37 25 28 351 89 99 75 72 107 115 135 127 120 89 75 339 7 38 29 26 266 148 328 318 349
327 325 324 309 312 313 312 312 314 307 300 262 258 252 243 213 85 24 359 335 332 309 307 275 29 86 119 99 277 346 359 33 16 27 22 287 176 34 10 285 98 342 323 250 49 49 296 58 69 111 192 71 324 275 285 260 247 116 82 58 83 93 41 44 35 80 99 106 107 92 103 102 112 135 117 108 122 141 161 52 127 51 14 0 285 307 303
330 323 317 315 305 304 302 305 305 301 271 288 357 357 18 12 348 330 323 308 307 266 268 277 185 237 120 157 135 261 316 18 240 215 148 348 18 36 328 355 23 1 8 344 17 250 52 31 325 334 343 83 271 301 280 255 179 25 77 142 126 81 68 150 92 68 70 118 155 209 180 81 291 353 78 106 90 71 37 16 8 118 136 212 247 168 301
331 327 315 311 302 289 292 294 297 297 357 58 94 118 98 35 327 299 294 303 262 262 291 281 314 70 249 87 143 170 310 251 260 354 70 12 30 281 134 23 250 157 93 268 217 32 50 320 264 208 101 308 265 281 288 316 65 115 157 168 162 146 146 85 138 125 138 143 295 289 332 73 98 135 148 137 80 68 141 234 213 182 300 293 276 244 226
330 330 318 293 277 278 278 289 291 294 261 195 203 127 52 22 317 340 321 282 289 318 254 280 177 233 112 102 223 93 299 317 72 325 101 77 10 277 36 239 89 302 82 313 45 241 164 258 297 31 83 179 291 295 288 327 20 125 216 187 152 175 190 189 213 184 181 136 147 326 30 23 49 70 146 208 106 69 16 330 353 324 245 263 271 264 293
331 328 320 275 244 245 237 230 213 217 237 197 69 56 7 359 327 300 287 305 269 186 229 258 270 272 159 193 232 101 332 284 343 23 332 78 319 353 348 285 181 251 94 316 253 297 313 72 11 272 228 85 199 317 263 255 137 192 172 218 200 192 202 220 220 211 171 157 225 178 187 185 199 233 238 221 224 222 227 274 307 286 253 223 229 268 262
330 330 299 245 227 216 200 224 248 236 206 47 52 33 2 313 289 271 276 279 300 320 236 165 238 236 260 284 140 107 259 252 2 290 71 298 231 62 316 324 294 81 330 277 313 330 356 76 257 274 128 221 228 234 1 3 11 235 263 257 194 228 229 231 222 199 189 191 240 317 298 265 257 270 275 268 274 266 269 264 238 235 254 266 268 269 274
324 330 287 238 207 205 210 144 90 343 22 356 330 329 304 292 240 241 229 232 195 213 302 312 257 41 351 56 82 91 269 299 45 278 226 331 346 9 311 289 6 21 257 216 220 249 80 57 282 279 277 284 306 322 341 311 294 290 257 240 227 224 225 222 202 200 199 191 195 208 223 240 248 256 265 271 277 288 237 235 240 238 232 244 262 265 270
332 296 235 212 217 210 147 176 62 34 325 268 254 259 184 222 180 163 181 197 85 275 213 261 301 65 211 285 76 56 299 283 180 310 29 35 300 224 6 282 39 324 301 307 63 39 313 262 243 273 290 279 312 312 279 281 274 250 263 262 258 247 237 233 193 195 220 216 215 221 240 246 276 273 283 275 258 224 227 247 240 239 262 270 250 256 275
271 229 221 240 245 357 16 66 74 55 302 249 242 262 145 255 211 147 105 109 216 199 112 285 62 325 301 286 102 41 349 332 314 290 294 100 312 332 15 319 93 287 312 281 104 347 274 248 238 255 262 218 231 157 173 253 268 268 273 284 284 272 254 236 209 222 230 251 318 330 296 311 312 315 288 260 279 272 217 236 239 240 237 235 238 240 261
219 223 253 210 323 62 85 117 146 203 228 218 193 273 187 217 244 165 207 210 160 118 237 137 29 356 10 329 326 121 8 298 311 349 339 43 100 313 16 291 30 315 297 291 80 356 286 295 287 283 283 280 108 98 282 307 286 289 302 285 260 255 250 245 223 215 242 257 248 255 296 304 319 300 303 288 256 229 212 223 225 217 209 201 64 9 323
1 245 195 38 59 44 70 173 178 218 219 223 109 256 283 298 12 38 232 194 160 94 321 355 171 183 243 290 287 328 112 275 288 293 283 293 72 276 295 301 14 298 293 275 87 282 285 277 283 280 292 347 266 23 324 283 279 275 235 283 288 265 248 232 227 199 211 224 222 209 251 289 294 296 296 300 257 219 219 267 259 232 218 239 215 229 304
359 341 351 308 303 281 204 202 222 177 30 261 174 162 4 119 195 207 305 278 129 168 140 285 207 289 68 335 354 312 91 30 322 298 301 300 61 310 312 298 307 298 300 14 355 273 265 271 281 278 310 10 17 315 292 295 301 296 292 269 282 267 237 220 210 201 221 233 242 266 294 319 320 306 301 269 208 194 190 207 214 243 260 246 246 261 249
243 235 274 260 200 202 233 188 110 258 156 107 178 80 219 205 210 242 142 117 63 277 101 246 6 130 107 282 249 331 346 10 292 256 265 313 86 242 300 308 298 260 282 337 291 294 276 270 270 275 23 59 25 302 305 309 306 287 276 282 277 241 232 212 205 209 219 220 200 254 295 288 293 302 277 257 181 186 192 203 208 220 216 233 266 285 288
200 242 231 220 205 178 234 180 204 339 322 217 173 155 196 186 181 189 196 131 174 197 45 305 20 314 333 104 313 253 184 150 326 310 287 17 283 291 289 272 244 302 320 269 275 269 274 285 282 293 357 80 311 318 331 316 314 312 291 214 205 244 235 223 208 219 221 227 223 221 245 270 312 270 254 245 218 206 213 213 201 212 226 259 268 268 249
238 222 234 203 197 199 170 17 224 187 208 170 255 143 171 176 146 147 95 92 279 66 137 273 313 303 298 40 267 51 341 324 139 235 303 322 296 292 263 274 313 301 285 289 284 281 280 286 290 246 314 275 225 245 306 339 320 318 320 306 254 241 236 234 231 234 234 236 241 236 250 261 273 281 247 248 239 227 230 229 209 197 216 221 230 246 213
241 243 199 174 271 278 225 169 181 219 155 177 217 345 45 68 37 86 83 338 308 11 288 359 307 303 287 95 275 293 208 271 287 258 269 264 281 280 293 298 290 284 284 273 265 267 271 288 305 145 172 282 315 299 292 295 295 301 298 309 312 260 236 238 240 240 242 239 232 233 247 257 260 266 262 252 250 230 233 242 241 222 220 230 233 235 224
254 243 265 284 17 196 228 210 208 152 162 195 42 23 52 71 46 31 53 326 299 9 314 314 294 321 303 302 265 221 217 279 280 286 278 271 259 276 242 284 272 247 254 269 274 277 284 302 325 325 303 280 250 245 266 289 294 312 333 318 279 275 278 254 238 242 242 231 242 252 252 248 257 255 264 264 252 245 231 233 234 227 228 232 236 233 233
275 290 292 227 205 194 197 208 101 127 308 40 110 65 64 52 225 131 121 230 337 307 313 318 291 242 234 130 263 286 296 265 281 273 251 281 261 263 287 258 256 259 254 268 273 282 293 326 324 305 273 257 289 306 315 319 321 305 289 280 283 264 243 250 258 253 252 252 246 239 237 236 242 257 260 270 277 255 240 233 231 228 225 226 231 229 234
312 297 261 271 276 240 259 123 222 187 151 167 215 213 184 221 203 101 86 7 294 314 349 311 328 312 275 159 256 265 263 187 253 237 163 220 237 239 228 252 254 270 271 261 280 296 306 318 337 305 313 309 290 290 306 310 302 288 263 265 277 288 290 281 274 272 267 262 260 254 250 249 251 248 234 235 251 264 252 231 226 227 223 227 227 231 223
244 215 226 244 232 236 233 214 260 241 167 170 191 236 199 255 277 77 68 291 305 299 292 243 205 285 285 288 279 277 272 239 242 256 257 257 248 254 251 259 262 264 281 305 308 313 314 322 332 303 285 276 290 302 308 297 279 263 268 267 269 270 274 282 279 273 266 262 260 260 256 249 242 247 247 238 247 266 249 234 225 221 223 227 230 222 225
216 280 263 263 279 279 170 233 234 241 209 192 214 232 237 271 303 175 115 290 295 295 276 275 233 225 253 245 247 255 243 337 259 250 250 260 259 247 247 253 263 282 299 310 304 312 321 323 319 320 306 289 294 311 309 299 297 298 300 279 274 281 286 284 280 274 270 266 261 255 256 259 258 246 241 229 234 235 240 229 229 231 233 229 223 227 225
222 223 236 209 225 254 243 256 291 281 275 275 260 299 295 268 250 28 85 284 279 272 279 277 260 261 245 249 243 263 300 272 259 274 268 262 253 262 263 271 291 300 306 305 308 319 317 316 329 319 296 293 296 293 287 283 290 295 296 298 296 285 280 279 280 276 266 259 258 256 252 246 253 245 237 245 240 230 230 239 224 220 230 236 225 218 227